GEC8291 LYBE-EDDF

Flight info

Callsign GEC8291
Flight time N/A
Altitude 34000
Route TUVAR DCT LAKIK DCT OBUTI DCT NEMAL DCT SIMBA DCT AKINI T161 ASPAT/N0471F300 T161 DEBHI DEBHI1B
Aircraft B77L/H-SDE1E2E3FGHIJ2J3J4J5M1RWXY/LB1D1

Departure

Time 2026-05-05 19:02
Airport Belgrade Nikola Tesla Airport (LYBE)

Arrival

Time N/A
Airport Frankfurt Main Airport (EDDF)
Time Latitude Longitude Altitude Speed Heading
2026-05-05 18:41 44.81954 20.29610 348 ft 0 kts 122°
2026-05-05 18:48 44.81955 20.29607 348 ft 1 kts 121°
2026-05-05 18:48 44.81961 20.29590 348 ft 2 kts 104°
2026-05-05 18:49 44.81963 20.29570 348 ft 2 kts 89°
2026-05-05 18:49 44.81962 20.29549 348 ft 2 kts 74°
2026-05-05 18:49 44.81956 20.29530 348 ft 2 kts 59°
2026-05-05 18:49 44.81948 20.29513 348 ft 2 kts 44°
2026-05-05 18:50 44.81936 20.29500 348 ft 2 kts 29°
2026-05-05 18:50 44.81923 20.29490 348 ft 2 kts 28°
2026-05-05 18:50 44.81910 20.29480 348 ft 1 kts 30°
2026-05-05 18:50 44.81908 20.29478 348 ft 0 kts 31°
2026-05-05 18:51 44.81911 20.29480 348 ft 1 kts 31°
2026-05-05 18:52 44.81923 20.29490 348 ft 3 kts 31°
2026-05-05 18:52 44.81963 20.29525 348 ft 9 kts 31°
2026-05-05 18:52 44.82036 20.29587 348 ft 13 kts 31°
2026-05-05 18:52 44.82097 20.29613 348 ft 8 kts 338°
2026-05-05 18:53 44.82132 20.29550 348 ft 8 kts 301°
2026-05-05 18:53 44.82174 20.29460 348 ft 13 kts 304°
2026-05-05 18:53 44.82228 20.29334 348 ft 17 kts 300°
2026-05-05 18:53 44.82295 20.29178 348 ft 20 kts 301°
2026-05-05 18:54 44.82374 20.28995 348 ft 22 kts 302°
2026-05-05 18:54 44.82454 20.28861 348 ft 16 kts 335°
2026-05-05 18:54 44.82527 20.28898 348 ft 11 kts 84°
2026-05-05 18:54 44.82503 20.28984 348 ft 0 kts 120°
2026-05-05 18:55 44.82468 20.29067 348 ft 38 kts 121°
2026-05-05 18:55 44.82178 20.29725 348 ft 117 kts 121°
2026-05-05 18:55 44.81691 20.30827 348 ft 92 kts 121°
2026-05-05 18:56 44.81622 20.30982 348 ft 0 kts 122°
2026-05-05 18:57 44.81622 20.30984 348 ft 1 kts 123°
2026-05-05 18:57 44.81605 20.31016 348 ft 6 kts 122°
2026-05-05 18:57 44.81566 20.31100 348 ft 15 kts 122°
2026-05-05 18:57 44.81495 20.31261 348 ft 19 kts 121°
2026-05-05 18:58 44.81426 20.31418 348 ft 17 kts 123°
2026-05-05 18:58 44.81331 20.31447 348 ft 14 kts 219°
2026-05-05 18:58 44.81344 20.31339 348 ft 13 kts 299°
2026-05-05 18:58 44.81413 20.31173 348 ft 25 kts 301°
2026-05-05 18:59 44.81525 20.30919 348 ft 35 kts 301°
2026-05-05 18:59 44.81672 20.30589 348 ft 41 kts 302°
2026-05-05 18:59 44.81818 20.30261 348 ft 38 kts 302°
2026-05-05 18:59 44.81952 20.29953 348 ft 35 kts 301°
2026-05-05 19:00 44.82077 20.29665 348 ft 32 kts 301°
2026-05-05 19:00 44.82193 20.29403 348 ft 30 kts 302°
2026-05-05 19:00 44.82300 20.29161 348 ft 28 kts 302°
2026-05-05 19:00 44.82396 20.28940 348 ft 19 kts 303°
2026-05-05 19:01 44.82494 20.28846 348 ft 14 kts
2026-05-05 19:01 44.82537 20.28924 348 ft 10 kts 117°
2026-05-05 19:01 44.82499 20.28995 348 ft 0 kts 122°
2026-05-05 19:01 44.82497 20.29002 348 ft 5 kts 122°
2026-05-05 19:02 44.82365 20.29292 348 ft 76 kts 121°
2026-05-05 19:02 44.81944 20.30249 348 ft 153 kts 123°
2026-05-05 19:02 44.81290 20.31790 456 ft 208 kts 118°
2026-05-05 19:02 44.80535 20.33642 1264 ft 225 kts 123°
2026-05-05 19:03 44.79714 20.35478 2170 ft 227 kts 122°
2026-05-05 19:03 44.78865 20.37402 2727 ft 239 kts 122°
2026-05-05 19:03 44.77981 20.39407 3477 ft 243 kts 122°
2026-05-05 19:03 44.77097 20.41413 4258 ft 245 kts 123°
2026-05-05 19:04 44.76203 20.43437 4981 ft 248 kts 123°
2026-05-05 19:04 44.75295 20.45491 5672 ft 251 kts 123°
2026-05-05 19:04 44.74363 20.47599 5915 ft 253 kts 123°
2026-05-05 19:04 44.73449 20.49667 5939 ft 252 kts 122°
2026-05-05 19:05 44.72526 20.51752 5943 ft 251 kts 122°
2026-05-05 19:05 44.71604 20.53834 5939 ft 251 kts 122°
2026-05-05 19:05 44.70678 20.55924 5942 ft 251 kts 122°
2026-05-05 19:05 44.69756 20.58000 5941 ft 252 kts 122°
2026-05-05 19:06 44.68749 20.59990 5925 ft 251 kts 138°
2026-05-05 19:06 44.67262 20.61196 5925 ft 249 kts 166°
2026-05-05 19:06 44.65477 20.61290 5942 ft 264 kts 188°
2026-05-05 19:06 44.63665 20.60736 5945 ft 269 kts 194°
2026-05-05 19:07 44.61863 20.60036 5942 ft 269 kts 195°
2026-05-05 19:07 44.60042 20.59319 5943 ft 269 kts 195°
2026-05-05 19:07 44.58258 20.58622 5944 ft 269 kts 195°
2026-05-05 19:07 44.56441 20.57916 5943 ft 269 kts 195°
2026-05-05 19:08 44.54644 20.57218 5949 ft 270 kts 195°
2026-05-05 19:08 44.52818 20.56510 5943 ft 269 kts 195°
2026-05-05 19:08 44.51016 20.55812 5943 ft 270 kts 195°
2026-05-05 19:08 44.49293 20.54814 5931 ft 270 kts 215°
2026-05-05 19:09 44.48033 20.52873 5941 ft 272 kts 241°
2026-05-05 19:09 44.47545 20.50312 6123 ft 287 kts 271°
2026-05-05 19:09 44.47893 20.47608 7100 ft 280 kts 285°
2026-05-05 19:09 44.48524 20.45062 7915 ft 280 kts 289°
2026-05-05 19:10 44.49235 20.42506 8593 ft 285 kts 290°
2026-05-05 19:10 44.49963 20.39926 9295 ft 287 kts 290°
2026-05-05 19:10 44.50689 20.37347 9997 ft 289 kts 290°
2026-05-05 19:10 44.51421 20.34740 10602 ft 294 kts 290°
2026-05-05 19:11 44.52168 20.32071 11256 ft 298 kts 289°
2026-05-05 19:11 44.52932 20.29343 11944 ft 302 kts 289°
2026-05-05 19:11 44.53694 20.26616 12615 ft 307 kts 289°
2026-05-05 19:11 44.54476 20.23814 13379 ft 310 kts 289°
2026-05-05 19:12 44.55252 20.21035 14125 ft 314 kts 289°
2026-05-05 19:12 44.56046 20.18185 15008 ft 315 kts 289°
2026-05-05 19:12 44.56838 20.15339 15886 ft 317 kts 290°
2026-05-05 19:12 44.57642 20.12448 16733 ft 319 kts 290°
2026-05-05 19:13 44.58443 20.09561 17550 ft 321 kts 290°
2026-05-05 19:13 44.59248 20.06658 18401 ft 322 kts 290°
2026-05-05 19:13 44.60053 20.03752 19205 ft 324 kts 291°
2026-05-05 19:13 44.60865 20.00816 19944 ft 327 kts 291°
2026-05-05 19:14 44.61681 19.97867 20651 ft 331 kts 291°
2026-05-05 19:14 44.62515 19.94841 21423 ft 332 kts 291°
2026-05-05 19:14 44.63335 19.91869 22130 ft 334 kts 291°
2026-05-05 19:14 44.64284 19.88854 22729 ft 339 kts 300°
2026-05-05 19:15 44.65692 19.86219 23338 ft 344 kts 314°
2026-05-05 19:15 44.67439 19.83940 23986 ft 347 kts 317°
2026-05-05 19:15 44.69254 19.81689 24624 ft 350 kts 317°
2026-05-05 19:15 44.71077 19.79428 25246 ft 352 kts 317°
2026-05-05 19:16 44.72913 19.77141 25850 ft 355 kts 317°
2026-05-05 19:16 44.74758 19.74837 26408 ft 359 kts 317°
2026-05-05 19:16 44.76606 19.72525 27031 ft 360 kts 317°
2026-05-05 19:16 44.78497 19.70155 27659 ft 362 kts 316°
2026-05-05 19:17 44.80372 19.67804 28238 ft 365 kts 316°
2026-05-05 19:17 44.82256 19.65438 28794 ft 368 kts 316°
2026-05-05 19:17 44.84188 19.63010 29383 ft 371 kts 316°
2026-05-05 19:17 44.86091 19.60616 29868 ft 375 kts 316°
2026-05-05 19:18 44.88007 19.58051 29950 ft 386 kts 310°
2026-05-05 19:18 44.89677 19.55001 29963 ft 399 kts 304°
2026-05-05 19:18 44.91287 19.51727 29954 ft 414 kts 303°
2026-05-05 19:18 44.92936 19.48354 29946 ft 428 kts 303°
2026-05-05 19:19 44.94652 19.44839 29959 ft 443 kts 303°
2026-05-05 19:19 44.96411 19.41237 29950 ft 446 kts 303°
2026-05-05 19:19 44.99903 19.34074 29948 ft 444 kts 303°
2026-05-05 19:20 45.03404 19.26878 29945 ft 445 kts 303°
2026-05-05 19:20 45.06876 19.19723 29947 ft 444 kts 303°
2026-05-05 19:21 45.10372 19.12500 30376 ft 451 kts 303°
2026-05-05 19:21 45.12143 19.08834 31289 ft 444 kts 303°
2026-05-05 19:21 45.13859 19.05306 32235 ft 435 kts 303°
2026-05-05 19:22 45.15573 19.01832 32971 ft 430 kts 303°
2026-05-05 19:22 45.17268 18.98397 33443 ft 430 kts 303°
2026-05-05 19:22 45.18980 18.94920 33830 ft 431 kts 303°
2026-05-05 19:22 45.20701 18.91420 33946 ft 433 kts 303°
2026-05-05 19:23 45.24123 18.84444 33953 ft 429 kts 303°
2026-05-05 19:23 45.27524 18.77491 33962 ft 430 kts 303°
2026-05-05 19:24 45.30920 18.70531 33949 ft 429 kts 303°
2026-05-05 19:24 45.34305 18.63576 33947 ft 430 kts 303°
2026-05-05 19:25 45.37702 18.56579 33948 ft 429 kts 303°
2026-05-05 19:25 45.41099 18.49564 33946 ft 431 kts 303°
2026-05-05 19:26 45.44473 18.42580 33942 ft 431 kts 303°
2026-05-05 19:26 45.47863 18.35546 33938 ft 431 kts 303°
2026-05-05 19:27 45.51232 18.28538 33947 ft 431 kts 303°
2026-05-05 19:27 45.54596 18.21523 33941 ft 430 kts 303°
2026-05-05 19:28 45.57977 18.14454 33936 ft 430 kts 303°
2026-05-05 19:28 45.61297 18.07423 33936 ft 430 kts 301°
2026-05-05 19:29 45.64466 18.00156 33934 ft 431 kts 301°
2026-05-05 19:29 45.67623 17.92902 33931 ft 432 kts 301°
2026-05-05 19:30 45.70778 17.85654 33930 ft 432 kts 301°
2026-05-05 19:30 45.73951 17.78356 33926 ft 431 kts 301°
2026-05-05 19:31 45.77087 17.71130 33922 ft 431 kts 301°
2026-05-05 19:31 45.80249 17.63826 33930 ft 431 kts 301°
2026-05-05 19:32 45.83383 17.56568 33928 ft 431 kts 301°
2026-05-05 19:32 45.86531 17.49262 33932 ft 430 kts 301°
2026-05-05 19:33 45.89669 17.41957 33929 ft 432 kts 301°
2026-05-05 19:33 45.92811 17.34627 33926 ft 431 kts 300°
2026-05-05 19:34 45.95940 17.27306 33934 ft 431 kts 300°
2026-05-05 19:35 46.00617 17.16328 33934 ft 430 kts 300°
2026-05-05 19:35 46.03735 17.08987 33932 ft 432 kts 300°
2026-05-05 19:36 46.06863 17.01601 33911 ft 432 kts 300°
2026-05-05 19:36 46.09991 16.94196 33906 ft 432 kts 300°
2026-05-05 19:37 46.13091 16.86838 33896 ft 431 kts 300°
2026-05-05 19:37 46.16199 16.79441 33896 ft 431 kts 300°
2026-05-05 19:38 46.19290 16.72065 33889 ft 430 kts 300°
2026-05-05 19:38 46.22377 16.64679 33884 ft 432 kts 300°
2026-05-05 19:39 46.25470 16.57260 33887 ft 431 kts 300°
2026-05-05 19:39 46.28344 16.50346 33887 ft 431 kts 300°
2026-05-05 19:40 46.31195 16.43472 33875 ft 432 kts 300°
2026-05-05 19:40 46.34263 16.36054 33885 ft 432 kts 300°
2026-05-05 19:41 46.37361 16.28566 33876 ft 432 kts 301°
2026-05-05 19:41 46.41079 16.21742 33873 ft 434 kts 308°
2026-05-05 19:42 46.45003 16.15035 33872 ft 434 kts 308°
2026-05-05 19:42 46.48897 16.08344 33872 ft 435 kts 308°
2026-05-05 19:43 46.52787 16.01631 33851 ft 436 kts 308°
2026-05-05 19:43 46.56689 15.94875 33845 ft 435 kts 308°
2026-05-05 19:44 46.60566 15.88146 33865 ft 435 kts 308°
2026-05-05 19:44 46.64440 15.81400 33861 ft 435 kts 308°
2026-05-05 19:45 46.68302 15.74661 33858 ft 435 kts 308°
2026-05-05 19:45 46.72166 15.67898 33865 ft 435 kts 308°
2026-05-05 19:46 46.76046 15.61093 33860 ft 436 kts 308°
2026-05-05 19:46 46.79903 15.54310 33859 ft 436 kts 308°
2026-05-05 19:47 46.83769 15.47495 33866 ft 437 kts 308°
2026-05-05 19:47 46.87621 15.40688 33868 ft 436 kts 308°
2026-05-05 19:48 46.91500 15.33816 33866 ft 437 kts 307°
2026-05-05 19:48 46.95357 15.26966 33872 ft 437 kts 307°
2026-05-05 19:49 46.99199 15.20125 33869 ft 437 kts 307°
2026-05-05 19:49 47.03037 15.13275 33872 ft 438 kts 307°
2026-05-05 19:50 47.06902 15.06360 33850 ft 437 kts 307°
2026-05-05 19:50 47.10746 14.99464 33851 ft 438 kts 307°
2026-05-05 19:51 47.14584 14.92561 33864 ft 437 kts 307°
2026-05-05 19:51 47.18429 14.85628 33879 ft 438 kts 307°
2026-05-05 19:52 47.22266 14.78693 33890 ft 439 kts 307°
2026-05-05 19:52 47.26112 14.71722 33885 ft 439 kts 307°
2026-05-05 19:53 47.29943 14.64762 33876 ft 438 kts 307°
2026-05-05 19:53 47.33757 14.57815 33872 ft 440 kts 307°
2026-05-05 19:54 47.37585 14.50823 33870 ft 440 kts 307°
2026-05-05 19:54 47.41427 14.43790 33862 ft 440 kts 307°
2026-05-05 19:55 47.45244 14.36784 33871 ft 441 kts 307°
2026-05-05 19:55 47.49076 14.29732 33871 ft 439 kts 306°
2026-05-05 19:56 47.52906 14.22664 33867 ft 441 kts 306°
2026-05-05 19:56 47.56723 14.15603 33869 ft 441 kts 306°
2026-05-05 19:57 47.60538 14.08529 33862 ft 441 kts 306°
2026-05-05 19:57 47.64342 14.01455 33862 ft 441 kts 306°
2026-05-05 19:58 47.68134 13.94385 33863 ft 441 kts 306°
2026-05-05 19:58 47.71949 13.87254 33865 ft 442 kts 306°
2026-05-05 19:59 47.75753 13.80126 33863 ft 442 kts 306°
2026-05-05 19:59 47.79579 13.72935 33839 ft 443 kts 306°
2026-05-05 20:00 47.83373 13.65788 33847 ft 444 kts 306°
2026-05-05 20:00 47.87201 13.58558 33839 ft 444 kts 306°
2026-05-05 20:01 47.91023 13.51317 33828 ft 445 kts 306°
2026-05-05 20:01 47.95093 13.44448 33827 ft 448 kts 312°
2026-05-05 20:02 47.99477 13.37872 33826 ft 448 kts 312°
2026-05-05 20:02 48.03836 13.31245 33842 ft 448 kts 311°
2026-05-05 20:03 48.08176 13.24586 33819 ft 450 kts 311°
2026-05-05 20:03 48.12539 13.17853 33820 ft 450 kts 311°
2026-05-05 20:04 48.16896 13.11099 33824 ft 452 kts 310°
2026-05-05 20:04 48.21256 13.04318 33802 ft 451 kts 310°
2026-05-05 20:04 48.23379 13.01011 33465 ft 445 kts 310°
2026-05-05 20:05 48.25468 12.97555 32519 ft 451 kts 308°
2026-05-05 20:05 48.27552 12.94001 31351 ft 463 kts 308°
2026-05-05 20:05 48.29681 12.90368 30297 ft 471 kts 309°
2026-05-05 20:05 48.31833 12.86702 29848 ft 464 kts 309°
2026-05-05 20:06 48.33938 12.83117 29825 ft 464 kts 308°
2026-05-05 20:06 48.38264 12.75737 29825 ft 468 kts 309°
2026-05-05 20:07 48.42567 12.68387 29822 ft 471 kts 308°
2026-05-05 20:07 48.46864 12.61032 29828 ft 472 kts 308°
2026-05-05 20:08 48.51184 12.53616 29830 ft 472 kts 308°
2026-05-05 20:08 48.55536 12.46124 29828 ft 475 kts 308°
2026-05-05 20:09 48.59852 12.38676 29829 ft 474 kts 309°
2026-05-05 20:09 48.63912 12.30840 29826 ft 471 kts 296°
2026-05-05 20:10 48.66244 12.21764 29824 ft 463 kts 277°
2026-05-05 20:10 48.66602 12.12213 29836 ft 457 kts 265°
2026-05-05 20:11 48.67460 12.02674 29832 ft 466 kts 283°
2026-05-05 20:11 48.70107 11.93673 29843 ft 473 kts 293°
2026-05-05 20:12 48.73070 11.84826 29839 ft 474 kts 294°
2026-05-05 20:12 48.76043 11.75927 29846 ft 473 kts 293°
2026-05-05 20:13 48.78984 11.67056 29840 ft 473 kts 291°
2026-05-05 20:13 48.80804 11.57587 29846 ft 469 kts 276°
2026-05-05 20:14 48.81822 11.47903 29842 ft 465 kts 275°
2026-05-05 20:14 48.82813 11.38242 29844 ft 467 kts 275°
2026-05-05 20:15 48.83987 11.28591 29847 ft 469 kts 283°
2026-05-05 20:15 48.86832 11.19635 29848 ft 477 kts 302°
2026-05-05 20:16 48.91392 11.12233 29850 ft 485 kts 315°
2026-05-05 20:16 48.96368 11.05318 29848 ft 486 kts 315°
2026-05-05 20:17 49.01350 10.98356 29847 ft 486 kts 315°
2026-05-05 20:17 49.06298 10.91412 29855 ft 486 kts 315°
2026-05-05 20:18 49.11224 10.84469 29836 ft 482 kts 315°
2026-05-05 20:18 49.16162 10.77482 29840 ft 484 kts 315°
2026-05-05 20:19 49.21037 10.70508 29542 ft 474 kts 313°
2026-05-05 20:19 49.23310 10.66937 28831 ft 475 kts 312°
2026-05-05 20:19 49.25600 10.63292 28143 ft 475 kts 312°
2026-05-05 20:19 49.27873 10.59677 27696 ft 469 kts 312°
2026-05-05 20:20 49.30092 10.56152 27317 ft 462 kts 312°
2026-05-05 20:20 49.32322 10.52610 26786 ft 459 kts 312°
2026-05-05 20:20 49.34511 10.49132 26200 ft 457 kts 312°
2026-05-05 20:20 49.36589 10.45457 25641 ft 451 kts 304°
2026-05-05 20:21 49.38376 10.41630 25147 ft 446 kts 303°
2026-05-05 20:21 49.40153 10.37736 24749 ft 438 kts 303°
2026-05-05 20:21 49.41860 10.33989 24368 ft 432 kts 302°
2026-05-05 20:21 49.43576 10.30219 23892 ft 427 kts 302°
2026-05-05 20:22 49.45276 10.26479 23332 ft 425 kts 302°
2026-05-05 20:22 49.46537 10.23700 22950 ft 422 kts 302°
2026-05-05 20:22 49.48197 10.20042 22522 ft 417 kts 302°
2026-05-05 20:22 49.49852 10.16390 22040 ft 413 kts 302°
2026-05-05 20:23 49.51476 10.12801 21587 ft 409 kts 302°
2026-05-05 20:23 49.53097 10.09214 21122 ft 405 kts 302°
2026-05-05 20:23 49.54685 10.05697 20652 ft 402 kts 302°
2026-05-05 20:23 49.56266 10.02191 20180 ft 398 kts 302°
2026-05-05 20:24 49.57828 9.98720 19715 ft 395 kts 303°
2026-05-05 20:24 49.59390 9.95247 19235 ft 392 kts 303°
2026-05-05 20:24 49.60924 9.91831 18796 ft 387 kts 303°
2026-05-05 20:24 49.62447 9.88434 18358 ft 383 kts 303°
2026-05-05 20:25 49.63947 9.85086 17925 ft 379 kts 303°
2026-05-05 20:25 49.65411 9.81736 17463 ft 375 kts 298°
2026-05-05 20:25 49.66495 9.78149 16990 ft 370 kts 287°
2026-05-05 20:25 49.67106 9.74369 16462 ft 367 kts 279°
2026-05-05 20:26 49.67585 9.70513 15990 ft 364 kts 279°
2026-05-05 20:26 49.68053 9.66737 15544 ft 360 kts 279°
2026-05-05 20:26 49.68523 9.62950 15056 ft 357 kts 279°
2026-05-05 20:26 49.68984 9.59237 14633 ft 353 kts 279°
2026-05-05 20:27 49.69450 9.55517 14178 ft 350 kts 279°
2026-05-05 20:27 49.69908 9.51861 13762 ft 346 kts 279°
2026-05-05 20:27 49.70365 9.48208 13311 ft 344 kts 279°
2026-05-05 20:27 49.70813 9.44604 12821 ft 343 kts 279°
2026-05-05 20:28 49.71257 9.41021 12411 ft 339 kts 279°
2026-05-05 20:28 49.71695 9.37507 12148 ft 330 kts 279°
2026-05-05 20:28 49.72118 9.34104 12075 ft 316 kts 278°
2026-05-05 20:28 49.72523 9.30855 11987 ft 301 kts 278°
2026-05-05 20:29 49.72910 9.27763 11879 ft 286 kts 278°
2026-05-05 20:29 49.73283 9.24808 11641 ft 281 kts 278°
2026-05-05 20:29 49.73663 9.21824 11268 ft 280 kts 278°
2026-05-05 20:29 49.74033 9.18912 10924 ft 279 kts 278°
2026-05-05 20:30 49.74408 9.15969 10611 ft 276 kts 278°
2026-05-05 20:30 49.74780 9.13076 10268 ft 275 kts 278°
2026-05-05 20:30 49.75151 9.10179 9629 ft 281 kts 279°
2026-05-05 20:30 49.75523 9.07233 8978 ft 285 kts 278°
2026-05-05 20:31 49.75907 9.04207 8347 ft 289 kts 282°
2026-05-05 20:31 49.76746 9.01388 7706 ft 295 kts 305°
2026-05-05 20:31 49.78262 8.99283 7071 ft 302 kts 328°
2026-05-05 20:31 49.80264 8.98279 6426 ft 309 kts 353°
2026-05-05 20:32 49.82412 8.98478 5783 ft 311 kts
2026-05-05 20:32 49.84533 8.98994 5189 ft 307 kts
2026-05-05 20:32 49.86582 8.99520 4999 ft 288 kts
2026-05-05 20:32 49.88481 9.00011 5006 ft 264 kts
2026-05-05 20:33 49.90154 9.00444 4971 ft 243 kts
2026-05-05 20:33 49.91752 9.00856 4981 ft 221 kts
2026-05-05 20:33 49.93213 9.01233 4981 ft 202 kts
2026-05-05 20:33 49.94582 9.01582 4969 ft 197 kts
2026-05-05 20:34 49.95902 9.01756 4974 ft 188 kts 351°
2026-05-05 20:34 49.97150 9.01273 4980 ft 191 kts 332°
2026-05-05 20:34 49.98345 9.00111 4946 ft 206 kts 321°
2026-05-05 20:34 49.99446 8.98861 4913 ft 190 kts 321°
2026-05-05 20:35 50.00512 8.97640 4624 ft 193 kts 321°
2026-05-05 20:35 50.01549 8.96285 4225 ft 191 kts 308°
2026-05-05 20:35 50.02336 8.94704 3992 ft 183 kts 305°
2026-05-05 20:35 50.03083 8.93155 3776 ft 177 kts 305°
2026-05-05 20:36 50.03808 8.91640 3575 ft 175 kts 304°
2026-05-05 20:36 50.04537 8.90117 3405 ft 174 kts 304°
2026-05-05 20:36 50.05253 8.88616 3177 ft 173 kts 305°
2026-05-05 20:36 50.05887 8.87015 2988 ft 172 kts 290°
2026-05-05 20:37 50.06139 8.85233 2971 ft 172 kts 275°
2026-05-05 20:37 50.06237 8.83407 2951 ft 169 kts 274°
2026-05-05 20:37 50.06329 8.81600 2959 ft 169 kts 274°
2026-05-05 20:37 50.06421 8.79795 2988 ft 169 kts 275°
2026-05-05 20:38 50.06517 8.77952 2888 ft 172 kts 274°
2026-05-05 20:38 50.06612 8.76093 2615 ft 172 kts 274°
2026-05-05 20:38 50.06706 8.74257 2324 ft 170 kts 274°
2026-05-05 20:38 50.06799 8.72431 2034 ft 169 kts 274°
2026-05-05 20:39 50.06799 8.70637 1935 ft 165 kts 257°
2026-05-05 20:39 50.06466 8.68994 1788 ft 161 kts 250°
2026-05-05 20:39 50.06050 8.67396 1510 ft 156 kts 247°
2026-05-05 20:39 50.05634 8.65828 1227 ft 153 kts 249°
2026-05-05 20:40 50.05272 8.64274 1027 ft 156 kts 251°
2026-05-05 20:40 50.04933 8.62698 854 ft 154 kts 251°
2026-05-05 20:40 50.04592 8.61148 730 ft 154 kts 251°
2026-05-05 20:40 50.04230 8.59577 569 ft 155 kts 248°
2026-05-05 20:41 50.03857 8.58013 373 ft 150 kts 245°
2026-05-05 20:41 50.03519 8.56628 348 ft 127 kts 249°
2026-05-05 20:41 50.03229 8.55420 341 ft 112 kts 250°